Victoria, British Columbia

6:28 PM PDT on July 26, 2017 (GMT -0700)
Victoria International

Weather History for CYYJ - February, 2013

Change the Weather History Date:

Sunday, February 10, 2013

  Actual Average Record
Temperature  
Mean Temperature 42 °F -  
Max Temperature 45 °F 48 °F 56 °F (2015)
Min Temperature 39 °F 34 °F 26 °F (2009)
Degree Days  
Heating Degree Days 23    
Moisture  
Dew Point 38 °F    
Average Humidity 85    
Maximum Humidity 100    
Minimum Humidity 62    
Precipitation  
Precipitation 0.00 in 0.12 in - ()
Sea Level Pressure  
Sea Level Pressure 30.37 in    
Wind  
Wind Speed 1 mph ()    
Max Wind Speed 5 mph    
Max Gust Speed -    
Visibility 15.7 miles    
Events Rain    
Averages and records for this station are not official NWS values.
T = Trace of Precipitation, MM = Missing Value Source: Averaged Metar Reports

Daily Weather History Graph

Daily Weather History Graph

Search for Another Location

Airport or City:

Trip Planner

Search our weather history database for the weather conditions in past years. The results will help you decide how hot, cold, wet, or windy it might be!

Date:

Astronomy

Feb. 10, 2013 Rise Set
Actual Time 7:29 AM PST 5:27 PM PST
Civil Twilight 6:56 AM PST 6:00 PM PST
Nautical Twilight 6:19 AM PST 6:37 PM PST
Astronomical Twilight 5:42 AM PST 7:13 PM PST
Moon 7:15 AM PST (2/10) 6:33 PM PST (2/10)
Length of Visible Light 11h 03m
Length of Day
9h 58m
New Moon, 0% of the Moon is Illuminated
Feb 10
New Moon
Feb 17
First Quarter
Feb 25
Full
Mar 4
Last Quarter
Mar 11
New

Hourly Weather History & Observations

Time (PST) Temp. Windchill Dew Point Humidity Pressure Visibility Wind Dir Wind Speed Gust Speed Precip Events Conditions
12:00 AM 41.0 °F - 39.2 °F 93% 30.37 in 20.0 mi WNW 2.3 mph - N/A   Overcast
1:00 AM 41.0 °F - 39.2 °F 93% 30.37 in 20.0 mi Calm Calm - N/A   Overcast
2:00 AM 41.0 °F - 39.2 °F 93% 30.38 in 20.0 mi Calm Calm - N/A   Overcast
3:00 AM 41.0 °F - 39.2 °F 93% 30.37 in 20.0 mi Calm Calm - N/A   Overcast
4:00 AM 40 °F - 38 °F 92% 30.38 in 19 mi Calm Calm - -   Overcast
4:00 AM 39.2 °F - 39.2 °F 100% 30.38 in 20.0 mi Calm Calm - N/A   Overcast
5:00 AM 39.2 °F - 37.4 °F 93% 30.38 in 20.0 mi Calm Calm - N/A   Overcast
6:00 AM 41.0 °F 38.0 °F 39.2 °F 93% 30.38 in 20.0 mi NW 4.6 mph - N/A   Overcast
7:00 AM 41.0 °F - 39.2 °F 93% 30.38 in 20.0 mi Calm Calm - N/A   Overcast
8:00 AM 41.0 °F - 39.2 °F 93% 30.38 in 20.0 mi WNW 2.3 mph - N/A   Mostly Cloudy
9:00 AM 41.0 °F - 39.2 °F 93% 30.38 in 10.0 mi Calm Calm - N/A   Overcast
10:00 AM 42 °F - 39 °F 87% 30.39 in 7 mi Calm Calm - - Rain Light Rain
10:00 AM 42.8 °F - 39.2 °F 87% 30.39 in 8.0 mi Calm Calm - N/A Rain Light Rain
11:00 AM 42.8 °F - 39.2 °F 87% 30.39 in 10.0 mi Calm Calm - N/A Rain Light Rain
11:23 AM 42.8 °F - - N/A% - 15.0 mi Calm Calm - N/A   Overcast
12:00 PM 42.8 °F - 39.2 °F 87% 30.38 in 15.0 mi Calm Calm - N/A   Overcast
1:00 PM 44.6 °F - 37.4 °F 76% 30.37 in 20.0 mi Calm Calm - N/A   Overcast
2:00 PM 44.6 °F - 37.4 °F 76% 30.36 in 30.0 mi Calm Calm - N/A   Overcast
3:00 PM 44.6 °F - 35.6 °F 71% 30.36 in 30.0 mi East 2.3 mph - N/A   Mostly Cloudy
4:00 PM 45 °F - 36 °F 62% 30.35 in 28 mi ESE 4.6 mph - -   Partly Cloudy
4:00 PM 44.6 °F 42.2 °F 37.4 °F 76% 30.35 in 30.0 mi ESE 4.6 mph - N/A   Mostly Cloudy
5:00 PM 44.6 °F 43.1 °F 37.4 °F 76% 30.35 in 30.0 mi East 3.5 mph - N/A   Overcast
6:00 PM 44.6 °F 43.1 °F 37.4 °F 76% 30.35 in 30.0 mi ESE 3.5 mph - N/A   Overcast
7:00 PM 44.6 °F - 37.4 °F 76% 30.35 in 30.0 mi SSE 2.3 mph - N/A   Overcast
8:00 PM 42.8 °F - 37.4 °F 81% 30.34 in 30.0 mi ESE 2.3 mph - N/A   Overcast
9:00 PM 42.8 °F - 37.4 °F 81% 30.33 in 30.0 mi Calm Calm - N/A   Overcast
10:00 PM 42 °F - 38 °F 83% 30.34 in 15 mi WNW 4.6 mph - -   Overcast
10:00 PM 42.8 °F 41.1 °F 39.2 °F 87% 30.34 in 15.0 mi WNW 3.5 mph - N/A   Overcast
10:11 PM 42.8 °F 41.1 °F - N/A% - 8.0 mi West 3.5 mph - N/A   Light Drizzle
11:00 PM 41.0 °F 38.0 °F 39.2 °F 93% 30.35 in 8.0 mi West 4.6 mph - N/A   Overcast